Location: Rathdrum
(47.8130°N, 116.8960°W)
Time: 19:37:49
(UTC-07:00)

Amateur Radio Satellites - All Passes

Search period start: 02 August 2015 19:07
Search period end: 03 August 2015 19:07
Location: Rathdrum, 47.8130°N, 116.8960°W

Satellite Date Start Highest point End Downlink Frequencies (MHz)
Time Altitude Azimuth
DOVE 4 02 Aug 19:08:05 19:10:41 17° 62° (ENE) 19:13:26 437.250
PCSat 02 Aug 19:15:18 19:19:28 22° 251° (WSW) 19:23:30 145.827
BRITE-PL 02 Aug 19:24:43 19:28:58 62° 74° (ENE) 19:33:06 437.365/2234.400
GOMX 1 02 Aug 19:26:49 19:30:41 38° 70° (ENE) 19:34:34 467.674
VERMONT LUNAR 02 Aug 19:30:30 19:33:00 21° 175° (S) 19:35:29 437.305
RS-15 02 Aug 19:37:05 19:43:16 18° 98° (E) 19:50:13 29.354- 29.394
STRAND 1 02 Aug 19:52:32 19:57:38 64° 101° (ESE) 20:02:41 437.568
CUTE-I 02 Aug 20:06:15 20:07:48 11° 277° (W) 20:08:59 437.470
COMPASS 1 02 Aug 20:06:36 20:10:22 33° 69° (ENE) 20:14:14 437.405
ZACube-1 02 Aug 20:13:43 20:15:14 12° 58° (ENE) 20:16:57 437.345
PHONESAT 2.4 02 Aug 20:13:59 20:16:17 17° 163° (SSE) 20:18:38 2401.200-2431.200
CUBESAT XI-V 02 Aug 20:18:31 20:22:16 24° 296° (WNW) 20:25:55 437.345
DELFI C3 02 Aug 20:21:26 20:23:33 14° 61° (ENE) 20:25:49 145.870
SEEDS 02 Aug 20:24:12 20:28:23 62° 73° (ENE) 20:32:39 437.485
HO-68 02 Aug 20:27:34 20:34:44 85° 253° (WSW) 20:41:58 435.675
CUTE 1.7 + AOD 2 02 Aug 20:29:58 20:34:15 87° 76° (ENE) 20:38:35 437.475
FUNcube-1 02 Aug 20:33:08 20:35:54 17° 62° (ENE) 20:38:49 145.935
Cosmos 2491 02 Aug 20:34:10 20:34:53 10° 39° (NE) 20:36:09 435.465 / 435.565
PRISM 02 Aug 20:36:22 20:40:24 52° 289° (WNW) 20:44:22 437.425
CANX-2 02 Aug 20:38:41 20:42:58 70° 258° (WSW) 20:47:17 2200.000
UWE-3 02 Aug 20:39:30 20:42:57 25° 65° (ENE) 20:46:33 435.000/436.395/437.385
CINEMA 3 02 Aug 20:39:42 20:43:48 61° 73° (ENE) 20:48:03 145.822/145.860
Oscar 11 02 Aug 20:41:31 20:45:22 32° 68° (ENE) 20:49:17 145.826/435.025
DOVE 4 02 Aug 20:44:03 20:48:06 54° 260° (W) 20:52:14 437.250
Cosmos 2499 02 Aug 20:44:14 20:51:06 26° 280° (W) 20:57:45 435.465 / 435.565
HUMSAT D 02 Aug 20:45:55 20:46:49 11° 58° (ENE) 20:47:55 437.325/437.525
AAUSAT CUBESAT 2 02 Aug 20:45:56 20:50:07 72° 75° (ENE) 20:54:21 437.432
CUBEBUG 2 02 Aug 20:58:15 21:02:17 46° 71° (ENE) 21:06:28 437.445
BRITE-PL 02 Aug 21:05:43 21:08:00 14° 272° (W) 21:10:06 437.365/2234.400
GOMX 1 02 Aug 21:05:47 21:09:03 21° 268° (W) 21:12:13 467.674
VERMONT LUNAR 02 Aug 21:06:52 21:09:09 18° 191° (SSW) 21:11:25 437.305
DX 1 02 Aug 21:15:28 21:18:08 17° 61° (ENE) 21:20:56 434.975-435.025
ISS 02 Aug 21:23:36 21:26:47 54° 150° (SSE) 21:30:00 145.825
M-CUBED/EXP-1 PRIME 02 Aug 21:25:13 21:27:29 14° 91° (E) 21:29:57 437.505
STRAND 1 02 Aug 21:32:36 21:36:26 21° 300° (WNW) 21:40:07 437.568
VELOX 1 02 Aug 21:36:56 21:39:38 17° 61° (ENE) 21:42:27 145.980
50 SAT 02 Aug 21:36:59 21:39:20 16° 63° (ENE) 21:41:48 437.505
COMPASS 1 02 Aug 21:42:29 21:46:06 26° 267° (W) 21:49:41 437.405
RS-15 02 Aug 21:42:51 21:53:38 71° 121° (ESE) 22:04:55 29.354- 29.394
ZACube-1 02 Aug 21:46:42 21:50:57 89° 51° (NE) 21:55:18 437.345
PHONESAT 2.4 02 Aug 21:50:43 21:53:39 25° 179° (S) 21:56:34 2401.200-2431.200
AUBIESAT-1 02 Aug 21:51:50 21:55:20 21° 95° (E) 21:58:53 437.475
DELFI C3 02 Aug 21:54:05 21:58:09 68° 258° (WSW) 22:02:14 145.870
ESTCUBE 1 02 Aug 21:55:45 21:58:49 19° 62° (ENE) 22:01:59 437.505/2401.250
SEEDS 02 Aug 22:02:10 22:04:39 15° 272° (W) 22:06:59 437.485
FUNcube-1 02 Aug 22:07:39 22:11:49 57° 260° (W) 22:16:05 145.935
TIGRISAT 02 Aug 22:08:20 22:10:25 13° 86° (E) 22:12:43 435.000
CUTE 1.7 + AOD 2 02 Aug 22:09:55 22:10:53 10° 276° (W) 22:11:37 437.475
ANTELSAT 02 Aug 22:10:41 22:13:08 14° 87° (E) 22:15:48 437.575/2403.000
UWE-3 02 Aug 22:15:25 22:19:20 36° 264° (W) 22:23:21 435.000/436.395/437.385
HUMSAT D 02 Aug 22:17:42 22:21:52 82° 76° (ENE) 22:26:08 437.325/437.525
Oscar 11 02 Aug 22:17:45 22:21:34 29° 266° (W) 22:25:22 145.826/435.025
UKube-1 02 Aug 22:18:32 22:22:46 57° 72° (ENE) 22:27:01 .
HO-68 02 Aug 22:18:57 22:23:40 18° 275° (W) 22:28:05 435.675
CINEMA 3 02 Aug 22:19:14 22:21:34 14° 273° (W) 22:23:45 145.822/145.860
AAUSAT CUBESAT 2 02 Aug 22:24:21 22:26:17 12° 274° (W) 22:28:01 437.432
Cosmos 2491 02 Aug 22:26:53 22:35:02 42° 68° (ENE) 22:43:14 435.465 / 435.565
AISAT 02 Aug 22:33:00 22:37:18 54° 71° (ENE) 22:41:37 437.250
CUBEBUG 2 02 Aug 22:36:12 22:39:18 19° 270° (W) 22:42:21 437.445
AIST 1 02 Aug 22:37:54 22:42:01 45° 75° (ENE) 22:46:07
BEESAT 3 02 Aug 22:38:44 22:41:41 20° 115° (ESE) 22:44:46 437.485
CUBEBUG 1 02 Aug 22:41:21 22:45:21 38° 69° (ENE) 22:49:24 437.445
DX 1 02 Aug 22:49:39 22:53:57 64° 258° (WSW) 22:58:17 434.975-435.025
POPSAT HIP 1 02 Aug 22:51:33 22:53:25 13° 87° (E) 22:55:29 437.405
YUBILEINY 02 Aug 22:54:20 23:00:22 22° 78° (ENE) 23:06:46 435.215
M-CUBED/EXP-1 PRIME 02 Aug 22:58:06 23:02:57 87° 286° (WNW) 23:07:41 437.505
QB50P2 02 Aug 22:59:09 23:01:45 16° 89° (E) 23:04:31 145.880/145.840
ISS 02 Aug 23:00:07 23:03:17 47° 348° (NNW) 23:06:28 145.825
UNISAT 6 02 Aug 23:00:44 23:05:11 41° 97° (E) 23:09:40 437.425
50 SAT 02 Aug 23:09:41 23:13:31 54° 260° (W) 23:17:24 437.505
SPROUT 02 Aug 23:10:19 23:13:45 25° 65° (ENE) 23:17:17 437.525
VELOX 1 02 Aug 23:11:21 23:15:44 66° 258° (WSW) 23:20:08 145.980
TISAT 1 02 Aug 23:14:59 23:17:48 18° 62° (ENE) 23:20:42 437.305
DUCHIFAT 1 02 Aug 23:20:49 23:24:16 24° 93° (E) 23:27:48 145.980
QB50P1 02 Aug 23:25:29 23:29:10 28° 94° (E) 23:32:54 145.935-145.965
AUBIESAT-1 02 Aug 23:25:41 23:30:23 56° 294° (WNW) 23:34:56 437.475
NANOSAT C BR1 02 Aug 23:25:53 23:29:33 28° 94° (E) 23:33:16 145.865
PHONESAT 2.4 02 Aug 23:28:34 23:31:01 18° 196° (SSW) 23:33:26 2401.200-2431.200
ESTCUBE 1 02 Aug 23:30:48 23:35:17 60° 259° (W) 23:39:48 437.505/2401.250
BEESAT 2 02 Aug 23:38:17 23:42:18 58° 123° (ESE) 23:46:23 435.950
TIGRISAT 02 Aug 23:43:07 23:47:50 82° 283° (WNW) 23:52:34 435.000
ANTELSAT 02 Aug 23:45:48 23:50:31 76° 286° (WNW) 23:55:14 437.575/2403.000
AIST 2 02 Aug 23:47:48 23:50:49 20° 114° (ESE) 23:53:57 435.215
ITUPSAT 1 02 Aug 23:54:34 23:55:58 11° 55° (NE) 23:57:35 437.325
RS-15 02 Aug 23:56:11 00:06:51 49° 328° (NNW) 00:17:56 29.354- 29.394
UKube-1 02 Aug 23:56:30 23:59:18 16° 270° (W) 00:01:58 .
HUMSAT D 02 Aug 23:57:13 23:58:18 11° 275° (W) 23:59:10 437.325/437.525
O/OREOS (USA 219) 03 Aug 00:07:13 00:07:33 10° 98° (E) 00:08:10 437.305
POLYITAN 1 03 Aug 00:09:18 00:13:36 81° 103° (ESE) 00:17:54 437.675
AISAT 03 Aug 00:11:13 00:14:15 18° 270° (W) 00:17:10 437.250
BEESAT 3 03 Aug 00:15:19 00:19:19 53° 312° (NW) 00:23:22 437.485
AIST 1 03 Aug 00:16:23 00:19:22 18° 273° (W) 00:22:13
CUBEBUG 1 03 Aug 00:18:15 00:21:51 24° 267° (W) 00:25:23 437.445
BUGSAT 1 03 Aug 00:18:57 00:23:00 63° 101° (ESE) 00:27:04 437.445
Cosmos 2491 03 Aug 00:23:50 00:32:10 51° 270° (W) 00:40:25 435.465 / 435.565
POPSAT HIP 1 03 Aug 00:25:35 00:29:51 71° 286° (WNW) 00:34:07 437.405
QB50P2 03 Aug 00:33:51 00:38:03 57° 288° (WNW) 00:42:15 145.880/145.840
M-CUBED/EXP-1 PRIME 03 Aug 00:34:10 00:37:03 16° 308° (NW) 00:39:48 437.505
ISS 03 Aug 00:36:56 00:40:05 44° 9° (N) 00:43:15 145.825
UNISAT 6 03 Aug 00:37:50 00:41:48 27° 295° (WNW) 00:45:42 437.425
SPROUT 03 Aug 00:45:42 00:49:41 37° 263° (W) 00:53:41 437.525
BEESAT 03 Aug 00:46:09 00:50:17 30° 65° (ENE) 00:54:30 436.000
YUBILEINY 03 Aug 00:47:25 00:56:10 88° 283° (WNW) 01:05:00 435.215
TISAT 1 03 Aug 00:49:08 00:53:13 52° 260° (W) 00:57:20 437.305
DUCHIFAT 1 03 Aug 00:56:16 01:00:11 36° 291° (WNW) 01:04:04 145.980
Cosmos 2504 03 Aug 00:58:22 01:01:34 14° 73° (ENE) 01:05:20 435.465 / 435.565
QB50P1 03 Aug 01:01:14 01:05:03 32° 292° (WNW) 01:08:49 145.935-145.965
NANOSAT C BR1 03 Aug 01:01:36 01:05:24 32° 292° (WNW) 01:09:11 145.865
AUBIESAT-1 03 Aug 01:02:59 01:04:10 11° 312° (NW) 01:05:08 437.475
SWISSCUBE 03 Aug 01:06:28 01:11:04 49° 70° (ENE) 01:15:43 437.505
BEESAT 2 03 Aug 01:17:17 01:20:40 24° 323° (NW) 01:24:02 435.950
TIGRISAT 03 Aug 01:21:46 01:23:54 13° 302° (WNW) 01:25:52 435.000
ANTELSAT 03 Aug 01:24:46 01:26:34 12° 303° (WNW) 01:28:10 437.575/2403.000
AIST 2 03 Aug 01:24:50 01:29:03 58° 312° (NW) 01:33:16 435.215
ITUPSAT 1 03 Aug 01:28:17 01:33:05 70° 72° (ENE) 01:37:54 437.325
O/OREOS (USA 219) 03 Aug 01:41:47 01:46:17 85° 113° (ESE) 01:50:50 437.305
Oscar 19 03 Aug 01:46:10 01:50:54 35° 96° (E) 01:55:39 437.125/150
POLYITAN 1 03 Aug 01:46:49 01:48:58 13° 300° (WNW) 01:50:56 437.675
BUGSAT 1 03 Aug 01:55:38 01:58:04 15° 298° (WNW) 02:00:21 437.445
BEESAT 3 03 Aug 01:56:06 01:58:11 13° 334° (NNW) 02:00:12 437.485
STARS 03 Aug 02:09:49 02:13:09 22° 63° (ENE) 02:16:35 437.465
RS-15 03 Aug 02:12:41 02:22:40 34° 1° (N) 02:33:05 29.354- 29.394
ISS 03 Aug 02:13:24 02:16:38 64° 209° (SSW) 02:19:52 145.825
BEESAT 03 Aug 02:23:36 02:28:04 37° 264° (W) 02:32:30 436.000
KKS-1 03 Aug 02:40:47 02:45:10 67° 73° (ENE) 02:49:35 437.445
Cosmos 2504 03 Aug 02:45:09 02:52:19 71° 95° (E) 03:00:05 435.465 / 435.565
SWISSCUBE 03 Aug 02:45:23 02:49:12 23° 268° (W) 02:52:57 437.505
YUBILEINY 03 Aug 02:47:42 02:54:30 23° 304° (NW) 03:01:04 435.215
JAS-2 03 Aug 02:55:22 03:01:52 29° 88° (E) 03:08:29 435.910
AO-7 03 Aug 03:00:16 03:03:30 13° 81° (E) 03:07:19 29.400- 29.500
Gurwin Techsat 1B 03 Aug 03:02:04 03:07:16 53° 99° (E) 03:12:28 435.225
AIST 2 03 Aug 03:06:02 03:08:31 15° 334° (NNW) 03:10:55 435.215
ITUPSAT 1 03 Aug 03:08:29 03:11:32 16° 272° (W) 03:14:24 437.325
ITAMSAT 1 03 Aug 03:11:43 03:16:50 56° 100° (E) 03:21:55 435.822/435.867
O/OREOS (USA 219) 03 Aug 03:23:33 03:26:25 16° 316° (NW) 03:29:09 437.305
CUSAT 1 03 Aug 03:25:14 03:25:59 11° 92° (E) 03:26:49 437.405
Oscar 19 03 Aug 03:25:32 03:30:16 36° 294° (WNW) 03:34:56 437.125/150
HORYU 2 03 Aug 03:36:29 03:38:52 14° 88° (E) 03:41:26 437.375
STARS 03 Aug 03:45:09 03:49:21 45° 261° (W) 03:53:34 437.465
MOZHAYETS 4 03 Aug 03:47:01 03:51:24 43° 69° (ENE) 03:55:49
ISS 03 Aug 03:51:14 03:52:35 12° 225° (SW) 03:53:50 145.825
KKS-1 03 Aug 04:19:49 04:22:20 14° 272° (W) 04:24:42 437.445
RS-15 03 Aug 04:27:18 04:38:27 51° 33° (NNE) 04:50:09 29.354- 29.394
Cosmos 2504 03 Aug 04:39:16 04:45:25 27° 299° (WNW) 04:51:48 435.465 / 435.565
JAS-2 03 Aug 04:39:46 04:47:36 74° 288° (WNW) 04:55:19 435.910
Gurwin Techsat 1B 03 Aug 04:42:36 04:46:59 26° 298° (WNW) 04:51:16 435.225
AO-7 03 Aug 04:50:01 04:58:19 63° 104° (ESE) 05:06:33 29.400- 29.500
ITAMSAT 1 03 Aug 04:51:52 04:56:02 24° 299° (WNW) 05:00:03 435.822/435.867
DANDE 03 Aug 05:01:31 05:04:20 43° 284° (WNW) 05:06:52 436.750
CUSAT 1 03 Aug 05:06:16 05:08:21 20° 290° (WNW) 05:10:22 437.405
HORYU 2 03 Aug 05:11:33 05:16:05 70° 286° (WNW) 05:20:32 437.375
BEESAT 3 03 Aug 05:16:28 05:17:44 11° 22° (NNE) 05:19:06 437.485
MOZHAYETS 4 03 Aug 05:24:58 05:28:49 24° 268° (W) 05:32:35
GONETS M04 03 Aug 05:29:53 05:37:58 46° 88° (E) 05:46:08
STRAND 1 03 Aug 05:34:29 05:38:12 21° 60° (ENE) 05:42:03 437.568
Cubesat XI-IV 03 Aug 05:42:08 05:43:51 12° 84° (E) 05:45:53 437.490
Cosmos 2499 03 Aug 05:44:17 05:46:26 12° 71° (ENE) 05:49:10 435.465 / 435.565
CUBESAT XI-V 03 Aug 05:47:03 05:51:40 63° 73° (ENE) 05:56:17 437.345
PRISM 03 Aug 05:55:12 05:58:17 21° 63° (ENE) 06:01:26 437.425
BEESAT 2 03 Aug 06:16:48 06:19:50 20° 34° (NNE) 06:22:54 435.950
JAS-2 03 Aug 06:26:01 06:31:31 21° 308° (NW) 06:36:49 435.910
AIST 2 03 Aug 06:27:49 06:29:24 12° 21° (NNE) 06:31:03 435.215
CUTE-I 03 Aug 06:35:07 06:39:55 34° 95° (E) 06:44:45 437.470
RS-15 03 Aug 06:40:06 06:51:44 70° 239° (WSW) 07:03:46 29.354- 29.394
AO-7 03 Aug 06:43:17 06:50:48 38° 304° (NW) 06:58:08 29.400- 29.500
HORYU 2 03 Aug 06:51:02 06:51:56 10° 305° (NW) 06:52:37 437.375
BEESAT 3 03 Aug 06:52:57 06:56:48 39° 44° (NE) 07:00:36 437.485
STRAND 1 03 Aug 07:11:53 07:17:00 65° 258° (WSW) 07:22:08 437.568
Cubesat XI-IV 03 Aug 07:19:36 07:24:58 79° 103° (ESE) 07:30:18 437.490
BRITE-PL 03 Aug 07:26:16 07:28:44 15° 89° (E) 07:31:28 437.365/2234.400
CUBESAT XI-V 03 Aug 07:26:29 07:29:35 17° 272° (W) 07:32:31 437.345
GONETS M04 03 Aug 07:26:35 07:34:54 46° 291° (WNW) 07:43:11
PRISM 03 Aug 07:29:25 07:33:27 45° 261° (W) 07:37:29 437.425
Cosmos 2499 03 Aug 07:30:30 07:37:50 60° 92° (E) 07:45:50 435.465 / 435.565
HO-68 03 Aug 07:53:22 07:57:07 15° 83° (E) 08:01:16 435.675
BEESAT 2 03 Aug 07:54:16 07:58:22 76° 235° (SW) 08:02:24 435.950
AIST 2 03 Aug 08:05:07 08:09:07 40° 44° (NE) 08:13:04 435.215
CUTE 1.7 + AOD 2 03 Aug 08:13:38 08:15:20 12° 86° (E) 08:17:13 437.475
CUTE-I 03 Aug 08:15:09 08:20:04 38° 294° (WNW) 08:24:56 437.470
M-CUBED/EXP-1 PRIME 03 Aug 08:15:14 08:18:49 27° 58° (ENE) 08:22:41 437.505
PCSat 03 Aug 08:16:44 08:21:18 29° 111° (ESE) 08:25:57 145.827
CANX-2 03 Aug 08:21:35 08:24:18 17° 89° (E) 08:27:09 2200.000
SO-50 03 Aug 08:30:32 08:34:31 27° 115° (ESE) 08:38:41 436.795
BEESAT 3 03 Aug 08:31:08 08:34:36 27° 243° (WSW) 08:37:58 437.485
CINEMA 3 03 Aug 08:32:09 08:34:15 13° 86° (E) 08:36:36 145.822/145.860
AO-7 03 Aug 08:38:20 08:41:19 12° 329° (NNW) 08:43:59 29.400- 29.500
DOVE 4 03 Aug 08:38:48 08:42:52 30° 95° (E) 08:47:11 437.250
AUBIESAT-1 03 Aug 08:41:45 08:45:42 40° 63° (ENE) 08:50:00 437.475
RS-15 03 Aug 08:54:34 09:02:23 19° 261° (W) 09:09:35 29.354- 29.394
YUBILEINY 03 Aug 08:58:20 09:02:35 14° 46° (NE) 09:07:18 435.215
Cubesat XI-IV 03 Aug 09:00:51 09:04:31 19° 302° (WNW) 09:08:01 437.490
GOMX 1 03 Aug 09:01:44 09:06:17 76° 103° (ESE) 09:11:07 467.674
BRITE-PL 03 Aug 09:03:23 09:07:44 66° 286° (WNW) 09:12:23 437.365/2234.400
TIGRISAT 03 Aug 09:10:24 09:13:14 17° 61° (ENE) 09:16:15 435.000
ANTELSAT 03 Aug 09:13:01 09:16:05 19° 62° (ENE) 09:19:18 437.575/2403.000
COMPASS 1 03 Aug 09:21:42 09:25:40 38° 97° (E) 09:29:37 437.405
Cosmos 2499 03 Aug 09:24:47 09:31:36 33° 297° (WNW) 09:38:49 435.465 / 435.565
DELFI C3 03 Aug 09:31:13 09:33:05 13° 87° (E) 09:35:08 145.870
GONETS M04 03 Aug 09:32:00 09:34:48 11° 318° (NW) 09:37:06
POLYITAN 1 03 Aug 09:32:41 09:34:16 12° 59° (ENE) 09:36:02 437.675
ZACube-1 03 Aug 09:32:57 09:35:29 15° 87° (E) 09:38:13 437.345
HO-68 03 Aug 09:39:00 09:46:14 76° 105° (ESE) 09:53:26 435.675
SEEDS 03 Aug 09:40:38 09:44:56 77° 102° (ESE) 09:49:11 437.485
AIST 2 03 Aug 09:43:55 09:47:34 28° 243° (WSW) 09:51:07 435.215
CUTE 1.7 + AOD 2 03 Aug 09:47:31 09:51:51 75° 285° (WNW) 09:56:07 437.475
POPSAT HIP 1 03 Aug 09:47:37 09:50:11 16° 62° (ENE) 09:52:52 437.405
M-CUBED/EXP-1 PRIME 03 Aug 09:49:29 09:53:25 39° 258° (WSW) 09:57:40 437.505
FUNcube-1 03 Aug 09:52:46 09:56:19 23° 91° (E) 09:59:58 145.935
QB50P2 03 Aug 09:55:24 09:58:25 20° 63° (ENE) 10:01:32 145.880/145.840
CANX-2 03 Aug 09:56:23 10:00:37 55° 288° (WNW) 10:04:48 2200.000
PCSat 03 Aug 09:59:12 10:04:29 53° 310° (NW) 10:09:50 145.827
HUMSAT D 03 Aug 10:00:26 10:01:40 11° 85° (E) 10:03:10 437.325/437.525
AAUSAT CUBESAT 2 03 Aug 10:00:49 10:05:04 85° 102° (ESE) 10:09:15 437.432
Oscar 11 03 Aug 10:00:59 10:05:07 39° 97° (E) 10:09:13 145.826/435.025
UWE-3 03 Aug 10:01:12 10:05:26 35° 96° (E) 10:09:44 435.000/436.395/437.385
UNISAT 6 03 Aug 10:02:58 10:07:14 53° 71° (ENE) 10:11:39 437.425
CINEMA 3 03 Aug 10:07:21 10:12:04 84° 286° (WNW) 10:16:59 145.822/145.860
O/OREOS (USA 219) 03 Aug 10:09:15 10:13:33 38° 56° (NE) 10:17:53 437.305
SO-50 03 Aug 10:10:06 10:14:50 52° 315° (NW) 10:19:41 436.795
DUCHIFAT 1 03 Aug 10:16:24 10:19:58 28° 67° (ENE) 10:23:37 145.980
DOVE 4 03 Aug 10:16:28 10:20:40 36° 291° (WNW) 10:25:04 437.250
AUBIESAT-1 03 Aug 10:17:04 10:20:35 25° 263° (W) 10:24:15 437.475
QB50P1 03 Aug 10:21:26 10:25:11 33° 68° (ENE) 10:29:00 145.935-145.965
NANOSAT C BR1 03 Aug 10:21:38 10:25:22 33° 68° (ENE) 10:29:09 145.865
CUBEBUG 2 03 Aug 10:21:44 10:26:24 69° 102° (ESE) 10:31:06 437.445
DX 1 03 Aug 10:35:27 10:38:16 17° 90° (E) 10:41:11 434.975-435.025
GOMX 1 03 Aug 10:41:17 10:44:00 15° 298° (WNW) 10:46:40 467.674
50 SAT 03 Aug 10:42:54 10:44:54 14° 88° (E) 10:47:04 437.505
TIGRISAT 03 Aug 10:45:12 10:49:32 62° 259° (WSW) 10:54:01 435.000
ANTELSAT 03 Aug 10:48:09 10:52:28 56° 260° (W) 10:56:55 437.575/2403.000
YUBILEINY 03 Aug 10:53:21 11:02:00 57° 73° (ENE) 11:10:41 435.215
COMPASS 1 03 Aug 10:57:44 11:01:10 24° 294° (WNW) 11:04:30 437.405
VELOX 1 03 Aug 10:59:09 11:02:10 18° 90° (E) 11:05:19 145.980
DELFI C3 03 Aug 11:04:36 11:08:39 64° 286° (WNW) 11:12:38 145.870
POLYITAN 1 03 Aug 11:05:22 11:09:35 87° 262° (W) 11:13:50 437.675
ZACube-1 03 Aug 11:07:49 11:12:22 69° 286° (WNW) 11:16:55 437.345
AIST 1 03 Aug 11:11:29 11:14:53 23° 89° (E) 11:18:20
BUGSAT 1 03 Aug 11:12:06 11:16:06 69° 74° (ENE) 11:20:08 437.445
SEEDS 03 Aug 11:17:56 11:20:12 14° 300° (WNW) 11:22:16 437.485
ESTCUBE 1 03 Aug 11:20:34 11:24:03 22° 92° (E) 11:27:36 437.505/2401.250
POPSAT HIP 1 03 Aug 11:21:29 11:25:38 61° 259° (WSW) 11:29:49 437.405
CUTE 1.7 + AOD 2 03 Aug 11:26:27 11:27:02 10° 303° (WNW) 11:27:26 437.475
HO-68 03 Aug 11:27:31 11:33:25 28° 305° (NW) 11:39:10 435.675
FUNcube-1 03 Aug 11:28:30 11:32:52 45° 289° (WNW) 11:37:13 145.935
QB50P2 03 Aug 11:29:56 11:34:01 48° 261° (W) 11:38:08 145.880/145.840
Oscar 19 03 Aug 11:30:51 11:32:51 13° 54° (NE) 11:35:04 437.125/150
Cosmos 2491 03 Aug 11:32:39 11:40:36 42° 87° (E) 11:48:39 435.465 / 435.565
HUMSAT D 03 Aug 11:33:43 11:38:05 83° 285° (WNW) 11:42:25 437.325/437.525
Oscar 11 03 Aug 11:37:32 11:41:06 24° 295° (WNW) 11:44:36 145.826/435.025
UWE-3 03 Aug 11:37:51 11:41:53 30° 293° (WNW) 11:45:55 435.000/436.395/437.385
AAUSAT CUBESAT 2 03 Aug 11:38:15 11:40:04 12° 301° (WNW) 11:41:43 437.432
UKube-1 03 Aug 11:38:25 11:42:44 65° 102° (ESE) 11:47:01 .
UNISAT 6 03 Aug 11:41:17 11:44:24 18° 271° (W) 11:47:28 437.425
PCSat 03 Aug 11:45:50 11:49:13 16° 334° (NNW) 11:52:30 145.827
CINEMA 3 03 Aug 11:46:26 11:48:41 13° 301° (WNW) 11:50:46 145.822/145.860
O/OREOS (USA 219) 03 Aug 11:48:56 11:52:53 28° 255° (WSW) 11:56:44 437.305
DUCHIFAT 1 03 Aug 11:52:00 11:55:44 30° 265° (W) 11:59:28 145.980
SO-50 03 Aug 11:53:18 11:56:30 17° 338° (NNW) 11:59:40 436.795
AISAT 03 Aug 11:56:24 12:00:49 69° 102° (ESE) 12:05:14 437.250
QB50P1 03 Aug 11:57:31 12:01:06 26° 266° (W) 12:04:39 145.935-145.965
NANOSAT C BR1 03 Aug 11:57:39 12:01:15 26° 266° (W) 12:04:48 145.865
CUBEBUG 2 03 Aug 11:59:32 12:02:37 18° 298° (WNW) 12:05:38 437.445
CUBEBUG 1 03 Aug 12:02:34 12:06:45 46° 99° (E) 12:10:57 437.445
DX 1 03 Aug 12:10:38 12:14:53 55° 289° (WNW) 12:19:08 434.975-435.025
50 SAT 03 Aug 12:15:57 12:19:54 59° 287° (WNW) 12:23:48 437.505
AO-7 03 Aug 12:18:10 12:18:33 10° 27° (NNE) 12:19:16 29.400- 29.500
Cosmos 2504 03 Aug 12:26:41 12:33:55 32° 64° (ENE) 12:41:30 435.465 / 435.565
SPROUT 03 Aug 12:28:44 12:32:28 29° 94° (E) 12:36:15 437.525
TISAT 1 03 Aug 12:30:43 12:33:41 19° 91° (E) 12:36:45 437.305
VELOX 1 03 Aug 12:34:47 12:39:04 52° 289° (WNW) 12:43:21 145.980
ZACube-1 03 Aug 12:47:06 12:47:57 10° 303° (WNW) 12:48:35 437.345
AIST 1 03 Aug 12:48:19 12:52:21 37° 287° (WNW) 12:56:23
Gurwin Techsat 1B 03 Aug 12:48:50 12:52:29 20° 59° (ENE) 12:56:18 435.225
BUGSAT 1 03 Aug 12:50:27 12:52:07 12° 273° (W) 12:53:36 437.445
YUBILEINY 03 Aug 12:50:39 12:58:36 38° 275° (W) 13:06:23 435.215
ITAMSAT 1 03 Aug 12:55:42 12:59:20 20° 59° (ENE) 13:03:06 435.822/435.867
ESTCUBE 1 03 Aug 12:56:52 13:01:10 44° 290° (WNW) 13:05:24 437.505/2401.250
Oscar 19 03 Aug 13:06:18 13:11:23 71° 73° (ENE) 13:16:32 437.125/150
HUMSAT D 03 Aug 13:11:39 13:13:09 11° 302° (WNW) 13:14:28 437.325/437.525
JAS-2 03 Aug 13:12:58 13:17:14 19° 50° (NE) 13:22:02 435.910
UKube-1 03 Aug 13:15:41 13:18:25 16° 299° (WNW) 13:21:01 .
ITUPSAT 1 03 Aug 13:27:02 13:29:24 14° 87° (E) 13:31:59 437.325
Cosmos 2491 03 Aug 13:28:54 13:37:24 51° 289° (WNW) 13:45:51 435.465 / 435.565
AISAT 03 Aug 13:34:12 13:36:56 16° 300° (WNW) 13:39:33 437.250
SO-50 03 Aug 13:37:31 13:39:03 11° 2° (N) 13:40:36 436.795
CUBEBUG 1 03 Aug 13:39:33 13:42:52 21° 296° (WNW) 13:46:03 437.445
CUSAT 1 03 Aug 13:52:41 13:56:02 23° 71° (ENE) 14:00:14 437.405
DANDE 03 Aug 13:52:48 13:54:38 13° 68° (ENE) 13:56:52 436.750
AO-7 03 Aug 14:01:50 14:08:45 31° 52° (NE) 14:15:50 29.400- 29.500
SPROUT 03 Aug 14:04:43 14:08:34 32° 292° (WNW) 14:12:22 437.525
TISAT 1 03 Aug 14:05:39 14:09:43 47° 289° (WNW) 14:13:46 437.305
Cosmos 2504 03 Aug 14:18:31 14:26:52 70° 266° (W) 14:35:25 435.465 / 435.565
BEESAT 03 Aug 14:19:55 14:24:30 43° 98° (E) 14:29:02 436.000
Gurwin Techsat 1B 03 Aug 14:26:39 14:31:58 74° 257° (WSW) 14:37:19 435.225
KKS-1 03 Aug 14:31:41 14:31:52 10° 85° (E) 14:32:20 437.445
ITAMSAT 1 03 Aug 14:33:09 14:38:22 71° 256° (WSW) 14:43:36 435.822/435.867
HORYU 2 03 Aug 14:37:44 14:41:04 21° 63° (ENE) 14:44:30 437.375
SWISSCUBE 03 Aug 14:40:48 14:45:36 73° 103° (ESE) 14:50:22 437.505
Oscar 19 03 Aug 14:47:57 14:51:22 17° 272° (W) 14:54:36 437.125/150
JAS-2 03 Aug 14:54:48 15:01:07 76° 72° (ENE) 15:08:21 435.910
ITUPSAT 1 03 Aug 15:03:10 15:07:59 79° 285° (WNW) 15:12:45 437.325
PCSat 03 Aug 15:17:40 15:20:55 16° 26° (NNE) 15:24:15 145.827
SO-50 03 Aug 15:18:01 15:21:31 19° 26° (NNE) 15:25:04 436.795
STARS 03 Aug 15:31:30 15:35:10 25° 94° (E) 15:38:53 437.465
Cosmos 2491 03 Aug 15:33:17 15:37:05 13° 316° (NW) 15:40:25 435.465 / 435.565
DANDE 03 Aug 15:34:06 15:37:51 62° 260° (W) 15:42:50 436.750
CUSAT 1 03 Aug 15:34:34 15:38:36 42° 262° (W) 15:43:50 437.405
GONETS M04 03 Aug 15:35:26 15:42:36 28° 60° (ENE) 15:49:59
AO-7 03 Aug 15:52:30 16:00:55 78° 253° (WSW) 16:09:20 29.400- 29.500
BEESAT 03 Aug 15:58:09 16:02:09 26° 296° (WNW) 16:06:05 436.000
KKS-1 03 Aug 16:04:48 16:09:18 86° 104° (ESE) 16:13:47 437.445
Gurwin Techsat 1B 03 Aug 16:11:39 16:13:02 11° 277° (W) 16:14:04 435.225
Cosmos 2504 03 Aug 16:12:58 16:17:46 16° 285° (WNW) 16:22:10 435.465 / 435.565
HORYU 2 03 Aug 16:13:04 16:17:24 49° 260° (W) 16:21:47 437.375
SWISSCUBE 03 Aug 16:19:50 16:22:57 17° 301° (WNW) 16:25:56 437.505
CUTE-I 03 Aug 16:23:41 16:26:18 14° 55° (NE) 16:29:07 437.470
JAS-2 03 Aug 16:42:10 16:47:10 23° 276° (W) 16:52:24 435.910
ITUPSAT 1 03 Aug 16:43:03 16:45:09 13° 304° (NW) 16:47:03 437.325
SO-50 03 Aug 16:58:03 17:03:02 65° 49° (NE) 17:07:54 436.795
PCSat 03 Aug 17:00:20 17:05:39 52° 49° (NE) 17:10:57 145.827
Cubesat XI-IV 03 Aug 17:06:13 17:10:45 29° 63° (ENE) 17:15:22 437.490
STARS 03 Aug 17:07:36 17:11:43 38° 292° (WNW) 17:15:48 437.465
MOZHAYETS 4 03 Aug 17:15:28 17:20:06 64° 101° (E) 17:24:40
Cosmos 2499 03 Aug 17:16:45 17:24:11 31° 62° (ENE) 17:31:54 435.465 / 435.565
GONETS M04 03 Aug 17:31:47 17:40:31 77° 264° (W) 17:49:14
CUBESAT XI-V 03 Aug 17:42:16 17:43:59 12° 85° (E) 17:45:56 437.345
KKS-1 03 Aug 17:43:05 17:45:21 14° 302° (WNW) 17:47:27 437.445
AO-7 03 Aug 17:49:40 17:55:15 18° 275° (W) 18:00:25 29.400- 29.500
CUTE-I 03 Aug 18:00:14 18:05:36 76° 73° (ENE) 18:10:58 437.470
HO-68 03 Aug 18:26:17 18:31:03 20° 50° (NE) 18:36:03 435.675
VERMONT LUNAR 03 Aug 18:28:09 18:30:26 18° 169° (S) 18:32:44 437.305
GOMX 1 03 Aug 18:38:20 18:40:23 14° 61° (ENE) 18:42:36 467.674
SO-50 03 Aug 18:39:22 18:43:10 22° 247° (WSW) 18:46:49 436.795
BRITE-PL 03 Aug 18:40:47 18:44:07 23° 66° (ENE) 18:47:28 437.365/2234.400
PCSat 03 Aug 18:44:10 18:48:52 30° 249° (WSW) 18:53:27 145.827
Cubesat XI-IV 03 Aug 18:45:30 18:50:41 47° 261° (W) 18:55:51 437.490
MOZHAYETS 4 03 Aug 18:53:42 18:56:53 18° 299° (WNW) 18:59:56
SEEDS 03 Aug 19:03:43 19:04:44 11° 58° (ENE) 19:05:57 437.485
